Date,TemperatureHighF,TemperatureAvgF,TemperatureLowF,DewpointHighF,DewpointAvgF,DewpointLowF,HumidityHigh,HumidityAvg,HumidityLow,PressureMaxIn,PressureMinIn,WindSpeedMaxMPH,WindSpeedAvgMPH,GustSpeedMaxMPH,PrecipitationSumIn
2014-1-1,49.5,44.2,41.9,47.2,40.5,36.4,95,87,74,29.24,28.59,24,9,37,0.62
2014-1-2,48.7,45.1,41.9,45.6,39.3,36.1,93,80,67,29.15,28.82,20,7,36,0.07
2014-1-3,47.4,44.9,41.4,36.8,34.5,31.8,80,67,59,29.17,28.75,20,12,44,0.20
2014-1-4,43.2,40.1,36.5,36.7,33.8,31.1,89,78,63,29.31,29.06,9,3,28,0.04
2014-1-5,50.8,44.5,37.6,47.2,40.1,32.6,94,85,75,29.35,28.86,24,10,46,0.27
2014-1-6,49.5,47.6,46.0,42.6,39.7,37.8,83,74,67,29.06,28.77,25,12,39,0.17
2014-1-7,50.2,47.6,45.3,40.3,38.8,36.4,81,72,66,29.48,29.06,18,8,30,0.01
2014-1-8,48.0,44.6,41.9,41.7,39.8,38.1,90,83,71,29.80,29.48,14,3,30,0.15
2014-1-9,44.1,40.0,35.1,39.5,36.0,31.6,92,86,77,29.78,29.54,10,3,22,0.02
2014-1-10,50.4,44.0,37.0,44.2,39.0,32.9,90,82,73,29.84,29.66,16,4,26,0.02
2014-1-11,44.8,39.4,34.8,36.6,33.4,30.4,90,79,64,30.11,29.83,12,3,25,0.00
2014-1-12,46.9,44.6,42.3,44.7,40.1,36.1,92,84,75,30.02,29.42,21,10,36,0.09
2014-1-13,43.3,40.2,34.5,38.7,35.0,30.2,86,82,74,29.55,29.37,12,3,23,0.01
2014-1-14,48.9,40.5,34.2,45.8,36.3,29.2,92,85,78,29.58,29.34,12,4,21,0.04
2014-1-15,48.4,46.1,43.2,45.6,43.1,39.1,92,89,81,29.34,29.07,14,5,25,0.03
2014-1-16,47.5,44.1,42.4,43.2,40.3,38.2,88,86,84,29.07,28.86,12,5,20,0.00
2014-1-17,45.0,42.9,40.6,39.5,38.3,36.7,90,84,73,29.14,28.88,7,2,15,0.00
2014-1-18,43.7,40.0,37.0,39.3,36.8,32.7,92,88,83,29.14,28.96,6,2,13,0.08
2014-1-19,43.2,40.5,37.8,36.9,35.6,33.7,88,83,75,29.45,29.13,8,2,15,0.00
2014-1-20,46.0,40.8,37.6,37.2,35.5,33.1,88,81,69,29.77,29.45,10,2,18,0.00
2014-1-21,46.4,44.9,41.4,44.3,41.4,35.7,93,88,80,29.73,29.38,20,9,33,0.02
2014-1-22,48.6,43.7,40.3,41.2,38.4,35.8,87,82,73,29.81,29.41,8,2,20,0.00
2014-1-23,44.2,41.5,39.4,39.1,35.6,33.3,84,80,74,29.92,29.70,12,3,25,0.01
2014-1-24,51.3,46.7,41.0,49.0,44.1,37.0,93,91,85,29.86,29.62,14,4,23,0.09
2014-1-25,50.2,44.2,39.2,44.3,37.4,32.4,87,77,60,29.90,29.60,20,6,51,0.06
2014-1-26,48.2,41.6,36.3,44.8,34.8,28.2,90,77,61,29.86,29.05,26,12,44,0.25
2014-1-27,44.2,41.6,37.9,38.8,35.8,31.5,85,80,75,29.05,28.78,20,9,37,0.02
2014-1-28,43.4,41.4,39.4,40.1,38.2,35.2,92,88,85,29.09,28.70,13,3,24,0.11
2014-1-29,43.2,41.0,39.4,39.8,37.6,35.8,92,88,80,29.59,29.10,10,4,20,0.08
2014-1-30,41.9,40.9,40.1,36.5,34.4,33.2,81,77,74,29.60,29.54,10,6,18,0.00
2014-1-31,46.4,42.6,40.6,43.3,38.0,33.7,91,84,76,29.55,28.87,31,11,45,0.41
2014-2-1,46.6,42.0,36.8,38.9,34.1,26.1,83,74,64,29.06,28.57,25,13,49,0.13
2014-2-2,48.7,43.8,40.1,41.3,37.0,32.5,85,77,66,29.47,29.06,18,9,38,0.03
2014-2-3,46.6,43.8,40.3,41.6,39.6,35.7,88,85,81,29.37,29.15,26,12,46,1.86
2014-2-4,45.0,41.8,37.6,40.7,36.6,32.9,89,82,73,29.22,28.54,36,13,52,8.39
2014-2-5,47.5,44.6,43.2,43.8,40.6,39.3,89,86,79,28.90,28.32,29,16,42,10.72
2014-2-6,45.4,42.8,37.4,40.6,36.9,33.1,88,80,73,29.15,28.91,14,3,30,0.00
2014-2-7,45.5,42.3,37.0,42.3,36.9,31.8,91,81,65,29.25,28.55,22,10,44,0.44
2014-2-8,48.2,43.8,41.5,42.2,37.8,35.1,92,79,66,28.56,28.18,24,12,42,0.12
2014-2-9,44.1,41.8,38.7,37.9,34.8,28.6,84,76,66,29.03,28.42,20,8,38,0.01
2014-2-10,43.5,39.3,34.7,36.1,32.8,28.2,85,77,72,29.41,29.02,18,3,34,0.00
2014-2-11,43.3,37.9,34.5,37.3,31.1,27.4,87,76,65,29.29,29.02,29,9,39,0.21
2014-2-12,50.0,40.6,35.8,50.0,34.2,28.3,100,78,68,29.31,28.23,28,15,55,2.88
2014-2-13,44.5,40.4,35.4,34.7,31.9,28.3,78,72,59,29.29,28.91,20,10,46,0.09
2014-2-14,45.1,42.2,39.2,42.7,38.3,32.8,92,86,76,29.30,28.28,35,10,46,4.45
2014-2-15,47.3,41.1,37.2,42.1,35.8,30.7,93,82,64,29.54,28.34,15,4,27,0.06
2014-2-16,45.3,40.6,34.2,41.2,35.2,28.3,89,81,68,29.62,29.40,13,5,25,0.00
2014-2-17,46.2,44.6,41.9,44.3,42.4,40.0,94,92,89,29.55,29.34,15,8,26,0.03
2014-2-18,47.7,44.7,41.4,42.4,40.2,38.6,92,85,75,29.72,29.55,7,2,14,0.00
2014-2-19,52.2,46.1,42.8,45.4,42.1,38.9,92,86,73,29.73,29.35,17,4,29,0.00
2014-2-20,48.0,44.0,38.7,45.6,37.7,30.2,93,79,58,29.39,29.11,17,8,40,0.03
2014-2-21,46.0,42.1,38.7,38.3,34.2,30.4,83,73,65,29.44,29.26,20,9,35,0.03
2014-2-22,48.6,45.1,41.7,43.7,38.6,33.6,88,78,67,29.58,29.39,28,10,40,0.81
2014-2-23,52.3,48.6,42.3,45.1,42.4,38.7,89,79,64,29.44,29.23,25,11,40,1.36
2014-2-24,48.6,43.8,41.7,42.5,39.6,37.8,90,85,76,29.43,29.05,24,9,40,0.44
2014-2-25,48.4,44.2,42.3,39.7,36.8,34.6,84,75,64,29.48,29.00,25,11,40,0.06
2014-2-26,49.8,44.5,41.0,41.4,35.9,31.9,89,72,54,29.76,29.42,21,10,36,0.04
2014-2-27,48.4,43.1,39.6,41.7,35.6,32.3,90,75,61,29.60,29.38,17,6,28,0.01
2014-2-28,50.0,42.4,37.8,36.9,34.4,31.9,83,74,55,29.66,29.37,9,2,17,0.00
2014-3-1,48.4,42.4,37.0,40.9,36.3,31.3,85,79,69,29.62,29.35,14,4,17,0.00
2014-3-2,48.2,43.1,37.0,43.9,37.2,29.2,90,80,69,29.36,28.84,14,4,23,0.02
2014-3-3,49.1,42.8,37.9,37.0,33.4,27.4,84,70,44,29.36,28.82,12,3,24,0.00
2014-3-4,50.2,43.6,38.7,41.2,36.3,33.0,82,75,64,29.84,29.36,7,2,15,0.00
2014-3-5,49.6,44.9,40.8,41.7,38.9,36.2,86,79,68,30.00,29.84,14,5,23,0.00
2014-3-6,50.9,47.9,45.7,47.0,44.5,42.0,90,88,85,30.00,29.80,17,7,30,0.01
2014-3-7,51.5,47.1,43.5,47.0,38.0,28.8,90,73,44,30.25,29.76,12,4,29,0.03
2014-3-8,52.0,48.1,44.4,44.6,41.5,38.8,92,78,66,30.14,29.82,32,18,48,8.77
2014-3-9,53.1,47.4,42.4,47.1,43.4,39.4,90,86,76,30.22,29.89,12,6,20,0.00
2014-3-10,52.3,43.8,37.6,41.4,37.8,34.6,91,80,59,30.53,30.22,7,2,12,0.00
2014-3-11,52.7,44.8,39.6,42.9,38.8,35.7,89,80,66,30.54,30.49,7,2,10,0.00
2014-3-12,51.1,43.2,38.1,40.9,37.2,34.0,87,80,67,30.50,30.43,6,2,9,0.00
2014-3-13,45.9,42.3,38.1,41.6,38.8,35.1,92,87,82,30.47,30.40,7,1,14,0.00
2014-3-14,51.8,45.8,39.9,44.5,41.0,36.8,90,84,74,30.40,30.27,9,3,23,0.00
2014-3-15,61.0,50.6,44.8,47.3,42.8,39.3,83,75,59,30.40,30.30,9,4,30,0.00
2014-3-16,52.3,48.5,43.7,46.4,43.0,39.2,87,81,74,30.33,30.23,9,3,23,0.00
2014-3-17,51.8,47.9,44.2,42.1,40.4,38.5,82,75,65,30.23,29.98,7,2,18,0.00
2014-3-18,56.7,49.7,44.8,43.0,40.6,38.2,81,71,57,30.10,29.78,15,6,36,0.00
2014-3-19,59.9,51.4,47.0,44.4,41.4,38.7,79,69,55,30.09,29.72,17,8,35,0.04
2014-3-20,48.9,45.7,40.8,43.4,38.7,31.7,87,77,60,29.71,29.37,31,12,55,2.04
2014-3-21,50.5,42.7,37.1,37.2,33.9,29.6,86,71,48,29.55,29.28,17,7,37,0.03
2014-3-22,47.1,39.7,36.1,40.0,32.6,27.7,83,76,69,29.52,29.26,13,5,29,0.03
2014-3-23,52.3,42.5,36.9,35.7,33.7,30.2,85,72,44,29.91,29.52,6,2,22,0.00
2014-3-24,45.7,43.5,40.6,42.9,38.2,34.8,90,82,72,29.87,29.37,29,13,47,3.65
2014-3-25,53.0,45.5,37.8,42.2,37.2,33.5,85,73,59,30.14,29.48,9,2,20,0.00
2014-3-26,47.1,43.3,39.7,42.9,38.2,34.7,88,82,75,30.18,29.95,7,2,15,0.00
2014-3-27,44.5,41.9,38.8,37.2,35.0,31.9,86,77,63,29.96,29.82,13,4,21,0.03
2014-3-28,51.4,44.9,41.0,41.9,39.1,35.6,87,80,64,30.02,29.92,15,6,26,0.04
2014-3-29,50.5,46.6,42.6,46.6,41.7,38.6,89,83,71,29.93,29.73,20,8,25,0.03
2014-3-30,57.4,50.9,47.3,45.4,42.7,40.8,85,74,61,29.84,29.73,20,5,27,0.00
2014-3-31,55.0,50.5,47.7,45.4,43.9,41.8,89,78,67,29.82,29.76,10,4,14,0.01
2014-4-1,53.1,47.4,42.6,46.0,42.8,39.5,89,84,73,29.83,29.72,7,3,13,0.00
2014-4-2,50.0,48.2,44.2,46.6,44.8,40.9,90,88,86,29.70,29.45,13,5,21,0.11
2014-4-3,51.8,48.8,45.7,49.3,45.9,42.9,92,90,84,29.61,29.46,6,2,13,0.01
2014-4-4,54.5,49.2,46.0,47.3,44.4,43.0,90,84,75,29.72,29.61,10,4,17,0.01
2014-4-5,54.7,49.1,47.1,51.2,46.5,44.3,93,91,84,29.69,29.59,16,6,24,0.06
2014-4-6,60.8,52.4,48.2,51.6,44.1,37.2,93,76,45,29.72,29.48,15,7,26,0.00
2014-4-7,53.1,47.4,41.5,48.4,42.3,35.8,87,82,74,29.74,29.58,8,2,23,0.06
2014-4-8,56.8,47.3,39.7,39.8,37.2,34.7,84,69,48,30.21,29.74,10,4,25,0.00
2014-4-9,57.2,52.6,47.3,42.9,40.7,38.1,78,64,56,30.22,30.17,10,4,20,0.00
2014-4-10,57.7,50.6,44.0,45.6,40.8,35.4,79,69,50,30.20,30.11,8,2,15,0.00
2014-4-11,55.6,46.9,39.0,41.5,37.5,33.7,86,71,48,30.24,30.09,10,2,17,0.00
2014-4-12,59.0,49.7,45.9,48.8,38.8,34.5,82,67,46,30.11,29.95,12,4,23,0.00
2014-4-13,56.8,48.9,43.2,42.1,38.4,35.1,76,67,56,30.21,30.11,13,4,30,0.00
2014-4-14,58.6,49.1,41.4,42.5,38.1,35.7,80,66,45,30.35,30.21,6,2,15,0.00
2014-4-15,54.5,48.9,42.4,44.9,41.3,35.4,87,75,67,30.35,30.28,12,4,20,0.00
2014-4-16,55.4,49.5,45.9,46.6,42.9,40.2,85,78,67,30.28,30.10,14,7,26,0.00
2014-4-17,55.6,51.5,49.1,44.9,42.6,39.9,82,72,59,30.18,30.06,9,3,20,0.00
2014-4-18,56.1,47.8,41.7,41.1,38.0,34.7,82,69,55,30.20,30.12,7,3,14,0.00
2014-4-19,58.3,48.6,41.5,46.6,40.7,35.7,86,74,61,30.12,30.02,8,3,12,0.00
2014-4-20,52.0,48.3,44.1,43.8,41.2,38.0,83,76,67,30.02,29.72,14,5,46,0.00
2014-4-21,59.7,54.2,48.0,47.7,45.8,43.4,88,74,64,29.75,29.68,12,4,21,0.00
2014-4-22,58.3,50.8,48.4,46.7,45.0,43.1,89,81,65,29.74,29.68,8,4,18,0.00
2014-4-23,56.7,51.3,47.8,50.3,46.9,45.0,91,85,73,29.97,29.72,16,8,23,0.01
2014-4-24,56.1,49.5,44.4,47.3,44.4,41.3,90,83,71,30.07,29.97,9,4,15,0.00
2014-4-25,57.9,51.2,45.7,48.0,44.7,41.1,87,79,67,30.03,29.54,14,5,23,0.00
2014-4-26,50.4,49.2,45.3,45.1,43.4,42.0,89,80,76,29.53,29.33,24,19,36,0.63
2014-4-27,57.4,51.0,49.5,46.6,43.6,42.7,86,76,64,29.87,29.34,22,16,29,0.00
2014-4-28,58.8,53.1,49.5,49.1,46.4,43.4,87,78,66,29.91,29.86,3,2,9,0.00
2014-4-29,62.2,52.9,46.4,49.1,45.8,42.7,88,78,58,29.90,29.86,6,2,24,0.00
2014-4-30,55.4,49.9,46.6,48.9,46.1,43.5,91,87,72,29.87,29.73,13,6,21,0.00
2014-5-1,55.4,51.2,48.2,52.8,48.3,44.5,92,90,87,30.09,29.70,7,2,15,0.03
2014-5-2,57.6,50.6,46.8,45.5,43.5,41.6,88,77,62,30.34,30.10,8,3,16,0.00
2014-5-3,55.0,51.1,49.1,49.0,45.8,42.4,87,82,77,30.33,30.18,12,5,20,0.00
2014-5-4,56.3,52.5,48.7,51.2,47.8,44.1,90,84,75,30.18,29.92,12,4,20,0.00
2014-5-5,52.8,50.4,48.6,48.5,46.1,43.9,91,85,81,29.92,29.48,18,10,29,0.00
2014-5-6,58.6,51.5,47.1,48.7,44.2,40.8,88,77,59,29.58,29.47,15,6,24,0.00
2014-5-7,59.5,52.0,47.1,48.0,43.1,40.1,79,72,58,29.74,29.53,16,7,32,0.01
2014-5-8,62.2,52.6,48.8,54.8,45.4,42.0,91,77,58,29.74,29.56,13,5,34,0.02
2014-5-9,60.6,53.1,46.9,45.4,42.9,40.8,86,69,53,29.80,29.59,15,6,33,0.02
2014-5-10,59.1,51.9,48.9,49.5,46.4,44.1,91,82,64,29.62,29.27,15,6,32,0.01
2014-5-11,57.7,50.4,47.1,48.8,44.8,41.3,89,82,61,29.72,29.41,10,4,21,0.01
2014-5-12,59.4,50.4,44.8,45.9,42.5,39.9,85,75,58,29.93,29.72,8,3,18,0.01
2014-5-13,61.8,51.6,44.1,48.5,43.7,40.4,88,75,53,30.34,29.93,7,2,26,0.01
2014-5-14,58.1,52.9,46.4,51.5,46.3,41.5,85,78,71,30.54,30.34,6,1,11,0.00
2014-5-15,60.6,56.2,52.2,52.6,49.7,47.8,86,79,68,30.59,30.53,6,2,13,0.00
2014-5-16,69.3,59.9,52.0,51.1,47.5,43.1,85,65,43,30.53,30.33,7,1,15,0.00
2014-5-17,69.1,58.9,50.0,48.2,43.3,35.6,70,57,39,30.33,29.91,8,3,21,0.00
2014-5-18,57.6,53.6,50.9,50.5,47.8,42.9,93,81,64,29.91,29.66,17,6,24,0.01
2014-5-19,57.4,52.5,50.0,53.5,49.8,47.9,96,91,79,29.67,29.55,9,3,20,0.02
2014-5-20,61.9,54.3,50.0,57.4,52.0,48.1,95,92,80,29.73,29.58,12,4,17,0.01
2014-5-21,61.5,53.9,48.7,50.7,47.0,41.3,94,78,58,29.79,29.68,9,5,18,0.00
2014-5-22,57.4,52.1,47.1,49.5,46.0,40.6,90,80,67,29.71,29.59,8,3,17,0.00
2014-5-23,50.5,49.4,48.4,46.5,44.0,42.0,86,82,74,29.77,29.70,15,6,27,0.00
2014-5-24,55.6,51.9,48.7,52.2,48.6,44.5,94,89,82,29.85,29.73,13,5,23,0.06
2014-5-25,64.0,54.3,48.9,52.3,48.6,44.6,93,82,55,29.99,29.84,7,2,20,0.00
2014-5-26,61.0,52.9,48.2,52.2,48.8,44.5,91,86,70,30.04,29.98,7,2,13,0.00
2014-5-27,64.6,55.3,46.2,49.2,46.3,42.1,91,73,53,30.07,30.02,6,2,11,0.00
2014-5-28,62.3,55.4,50.6,49.5,47.5,43.8,85,75,60,30.05,30.02,8,3,15,0.00
2014-5-29,55.4,53.0,50.9,50.4,48.1,46.9,91,84,75,30.18,30.04,7,3,14,0.00
2014-5-30,63.3,55.2,51.1,49.1,47.3,43.8,90,75,56,30.30,30.17,7,2,14,0.00
2014-5-31,67.3,58.5,51.6,53.5,48.9,43.6,81,71,59,30.29,30.22,7,2,15,0.00
2014-6-1,63.0,57.7,54.5,52.9,50.6,47.5,91,77,66,30.23,30.00,12,5,20,0.00
2014-6-2,65.8,58.7,54.7,53.1,50.8,45.8,91,76,58,30.01,29.93,7,2,16,0.00
2014-6-3,61.3,54.6,50.0,54.4,46.6,43.6,86,75,57,29.93,29.74,8,3,17,0.01
2014-6-4,60.1,52.0,47.3,46.7,44.6,41.6,90,77,58,29.76,29.67,8,2,17,0.00
2014-6-5,64.9,54.0,44.1,48.4,43.2,39.7,86,68,43,29.85,29.76,9,4,20,0.00
2014-6-6,61.3,55.6,49.6,50.9,46.6,42.4,84,72,63,29.85,29.73,17,8,23,0.00
2014-6-7,62.4,57.0,54.5,56.2,52.4,50.4,92,85,74,29.84,29.72,14,5,21,0.01
2014-6-8,59.2,55.6,53.4,54.7,52.3,51.0,92,89,82,29.99,29.83,17,10,30,0.08
2014-6-9,62.2,56.7,53.2,55.3,52.3,50.9,92,85,73,29.98,29.87,12,8,20,0.00
2014-6-10,60.1,55.1,52.9,54.8,51.4,49.4,91,87,77,29.99,29.83,13,6,21,0.03
2014-6-11,66.6,58.6,51.1,54.3,50.9,48.2,91,77,62,30.33,29.99,7,2,15,0.00
2014-6-12,70.8,61.5,52.5,55.5,51.1,47.2,85,69,55,30.36,30.30,9,2,18,0.00
2014-6-13,72.0,63.5,57.4,54.3,51.9,50.0,80,66,51,30.31,30.27,5,2,13,0.00
2014-6-14,69.8,61.5,56.1,55.3,53.6,51.1,88,76,59,30.39,30.30,5,2,14,0.00
2014-6-15,71.1,61.4,53.4,53.6,50.0,47.2,84,67,45,30.43,30.39,7,2,17,0.00
2014-6-16,71.8,60.0,52.9,54.7,50.1,46.0,84,71,46,30.45,30.40,8,3,15,0.00
2014-6-17,72.2,64.3,54.1,56.7,54.2,48.4,88,70,57,30.45,30.40,7,2,13,0.00
2014-6-18,72.9,65.1,56.5,58.1,54.8,51.1,87,70,55,30.41,30.31,8,2,15,0.00
2014-6-19,70.2,61.3,54.9,54.1,49.7,45.6,81,67,48,30.34,30.27,9,2,20,0.00
2014-6-20,68.0,58.3,49.5,50.2,46.3,42.5,78,65,47,30.29,30.20,7,3,13,0.00
2014-6-21,70.5,60.9,52.0,54.8,49.7,45.3,80,67,49,30.22,30.17,8,2,15,0.00
2014-6-22,71.4,60.4,51.3,51.7,48.4,45.5,83,66,42,30.26,30.19,8,2,15,0.00
2014-6-23,73.4,63.3,54.1,54.2,50.3,45.7,82,64,47,30.28,30.24,7,2,14,0.00
2014-6-24,69.8,62.6,55.6,55.3,52.4,49.5,86,70,55,30.25,30.12,6,1,13,0.00
2014-6-25,65.1,60.5,57.2,56.1,53.2,50.3,82,77,68,30.12,29.98,7,2,12,0.00
2014-6-26,65.5,59.3,54.9,54.2,52.2,50.7,87,78,64,29.98,29.85,10,3,17,0.04
2014-6-27,64.2,58.4,54.9,54.8,52.0,47.2,92,80,66,29.88,29.82,16,5,29,0.00
2014-6-28,65.4,58.8,53.6,50.3,46.5,40.5,83,65,42,29.94,29.85,10,3,18,0.00
2014-6-29,68.5,57.8,48.9,50.7,46.1,41.9,83,66,47,30.02,29.93,8,3,16,0.00
2014-6-30,68.7,60.6,52.3,51.1,46.1,41.9,72,59,46,30.07,30.00,8,3,14,0.00
2014-7-1,72.3,63.1,56.3,54.1,50.1,45.0,76,63,49,30.17,30.07,7,3,15,0.00
2014-7-2,71.7,64.9,56.3,54.4,50.0,43.8,73,59,53,30.17,30.02,12,4,24,0.00
2014-7-3,70.7,62.9,58.1,58.0,54.5,51.1,83,74,58,30.05,29.78,10,2,17,0.01
2014-7-4,62.8,60.2,54.3,57.5,55.4,50.8,89,84,76,29.78,29.47,10,3,17,0.09
2014-7-5,64.7,56.1,49.6,53.3,48.7,44.7,89,77,53,29.62,29.51,8,2,17,0.14
2014-7-6,63.1,56.9,50.9,53.7,48.7,45.7,87,75,57,29.78,29.60,7,2,15,0.06
2014-7-7,63.5,57.3,52.3,50.3,48.1,46.0,80,71,62,29.99,29.78,7,2,13,0.00
2014-7-8,62.9,56.7,52.0,52.3,49.1,46.6,86,76,63,30.21,29.97,6,2,15,0.02
2014-7-9,53.6,51.2,49.3,46.6,45.5,44.8,86,81,75,30.25,30.21,5,2,11,0.00
2014-7-10,63.3,59.5,50.0,59.7,55.9,50.0,100,88,81,30.16,30.11,6,1,8,0.09
2014-7-11,68.7,62.1,50.0,59.5,55.9,50.0,100,81,68,30.13,30.06,5,2,10,0.00
2014-7-12,63.9,61.9,59.4,61.2,58.1,53.2,91,87,80,29.88,29.77,6,2,14,0.02
2014-7-13,68.2,60.1,54.7,53.7,49.7,46.0,87,70,48,29.88,29.78,6,2,15,0.00
2014-7-14,71.8,61.9,55.2,60.0,53.1,47.0,83,73,60,29.93,29.72,10,4,21,0.00
2014-7-15,68.5,61.0,56.1,55.0,50.8,46.6,82,70,47,30.08,29.94,10,4,22,0.00
2014-7-16,74.1,65.4,59.0,59.3,54.1,48.2,88,69,46,30.11,29.95,12,4,20,0.00
2014-7-17,69.6,62.6,57.6,57.0,53.7,50.6,84,73,60,30.15,30.02,7,3,13,0.00
2014-7-18,62.1,60.4,59.4,60.3,57.0,53.2,94,89,80,30.02,29.78,10,6,20,0.05
2014-7-19,66.6,60.8,59.0,63.9,57.9,56.3,94,91,79,29.82,29.75,7,3,12,0.00
2014-7-20,73.9,64.9,59.0,58.7,55.6,52.1,93,74,49,30.03,29.76,8,2,20,0.00
2014-7-21,70.7,64.3,57.6,58.9,55.3,52.1,83,73,63,30.17,30.03,13,2,17,0.00
2014-7-22,67.1,63.4,60.3,59.7,57.8,56.3,88,82,75,30.25,30.17,8,3,12,0.00
2014-7-23,79.0,67.7,58.3,62.8,57.6,55.0,90,72,46,30.24,30.11,8,3,15,0.00
2014-7-24,74.1,68.6,63.0,58.8,56.6,53.6,77,66,55,30.12,30.08,7,2,14,0.00
2014-7-25,78.3,69.3,61.7,58.3,55.6,53.0,80,63,44,30.11,30.06,6,2,12,0.00
2014-7-26,70.9,65.8,59.5,62.6,55.4,49.4,83,69,54,30.11,30.03,6,2,15,0.01
2014-7-27,71.6,61.4,54.7,54.1,51.6,47.9,88,72,43,30.11,30.03,10,3,28,0.00
2014-7-28,72.5,62.9,57.4,58.3,55.5,53.4,93,78,60,30.12,30.02,7,2,15,0.03
2014-7-29,69.1,63.1,59.2,57.4,52.9,48.4,86,70,54,30.12,30.06,7,2,17,0.00
2014-7-30,69.6,63.1,55.9,57.4,53.1,49.8,85,71,55,30.07,29.93,12,3,23,0.00
2014-7-31,72.6,63.6,58.5,57.3,54.0,48.5,86,72,54,29.93,29.78,8,3,20,0.00
2014-8-1,67.2,60.3,56.5,57.0,53.8,49.4,89,80,67,29.78,29.60,7,2,13,0.05
2014-8-2,59.4,56.8,54.1,56.0,53.9,51.6,92,90,85,29.60,29.45,13,4,27,0.34
2014-8-3,64.2,57.3,53.6,54.1,51.9,49.5,92,83,65,29.82,29.46,16,6,31,0.14
2014-8-4,66.6,59.4,51.4,56.1,51.8,46.8,87,76,63,29.97,29.82,9,4,20,0.00
2014-8-5,66.6,61.3,59.0,61.2,57.7,55.4,94,88,78,29.97,29.78,10,6,20,0.09
2014-8-6,73.9,64.5,57.7,60.0,54.6,48.1,93,72,44,29.92,29.74,8,2,17,0.00
2014-8-7,67.1,60.2,53.1,56.7,51.1,45.3,84,72,52,29.98,29.91,9,4,17,0.00
2014-8-8,65.5,59.4,54.7,59.0,54.9,50.3,90,85,75,29.91,29.66,10,4,17,0.03
2014-8-9,68.2,59.4,52.5,52.5,50.2,47.5,84,72,52,29.67,29.59,10,4,21,0.00
2014-8-10,63.1,55.4,52.0,51.6,49.7,46.6,92,82,56,29.58,29.34,13,4,28,0.73
2014-8-11,65.7,58.4,53.2,50.5,48.2,45.1,83,70,52,29.65,29.55,13,7,30,0.00
2014-8-12,66.0,57.9,53.2,55.3,49.0,45.7,82,72,56,29.64,29.55,12,5,26,0.07
2014-8-13,70.0,60.1,54.4,51.7,49.6,46.8,86,70,44,29.78,29.60,7,3,21,0.00
2014-8-14,65.1,58.6,53.1,52.6,49.0,44.6,87,71,56,29.96,29.77,5,2,15,0.01
2014-8-15,63.9,57.3,50.0,49.7,46.6,44.5,85,68,54,30.18,29.97,5,2,15,0.00
2014-8-16,62.7,58.1,54.9,51.8,48.7,45.8,82,71,61,30.18,29.90,13,5,33,0.00
2014-8-17,63.1,57.2,52.3,52.5,46.5,40.9,85,68,47,29.90,29.78,9,4,23,0.00
2014-8-18,61.4,55.6,51.4,47.7,44.0,39.2,81,66,47,29.96,29.79,8,3,20,0.00
2014-8-19,62.2,53.9,48.4,46.7,43.4,40.1,85,68,52,30.07,29.91,7,2,14,0.01
2014-8-20,61.9,54.1,46.0,45.8,43.2,39.2,81,67,51,30.09,30.03,5,1,13,0.00
2014-8-21,63.0,55.7,50.9,53.3,47.1,43.6,83,73,58,30.03,29.77,9,3,24,0.02
2014-8-22,62.2,54.3,47.7,45.4,43.4,41.1,85,68,49,29.98,29.83,7,2,18,0.00
2014-8-23,62.8,53.6,44.4,47.0,43.3,39.8,86,69,49,30.08,29.97,6,2,16,0.00
2014-8-24,62.1,54.9,49.5,52.6,47.7,43.1,91,77,64,30.07,29.79,15,6,23,0.04
2014-8-25,59.0,57.3,55.0,57.4,55.7,52.8,95,94,92,29.79,29.47,15,9,23,0.03
2014-8-26,64.6,58.7,56.1,56.1,54.3,51.1,96,86,70,29.91,29.50,9,6,23,0.00
2014-8-27,61.2,58.1,55.8,57.1,52.6,49.9,94,82,73,29.92,29.57,20,12,28,0.10
2014-8-28,65.3,59.9,55.2,57.1,51.9,47.2,94,76,55,29.67,29.57,20,7,29,0.01
2014-8-29,64.9,59.2,55.6,55.4,52.2,50.0,88,78,70,29.77,29.58,14,6,23,0.03
2014-8-30,65.1,58.4,54.3,54.7,51.1,48.2,89,77,57,30.06,29.77,6,3,21,0.00
2014-8-31,66.0,58.9,50.9,57.4,51.6,46.8,87,77,63,30.07,29.98,8,3,18,0.00
2014-9-1,64.9,60.0,56.3,57.2,49.3,42.8,86,69,48,30.23,30.02,5,1,13,0.00
2014-9-2,66.4,60.2,55.4,54.7,50.6,47.0,82,71,62,30.25,30.20,6,1,11,0.00
2014-9-3,68.2,60.6,54.1,57.9,53.8,49.4,90,79,64,30.21,30.13,6,2,9,0.00
2014-9-4,69.6,61.7,55.9,57.1,52.3,49.0,83,72,62,30.13,30.06,7,2,11,0.00
2014-9-5,69.6,60.8,55.6,55.0,52.3,49.0,88,74,58,30.08,30.02,7,2,13,0.00
2014-9-6,61.2,55.8,50.7,51.8,47.2,44.1,88,74,54,30.06,30.01,7,2,17,0.00
2014-9-7,66.2,55.0,46.9,49.7,46.1,42.7,85,73,54,30.12,30.04,6,2,15,0.00
2014-9-8,62.1,54.3,46.4,46.7,44.0,41.4,85,69,52,30.19,30.11,7,2,15,0.00
2014-9-9,66.0,57.2,50.7,48.3,46.2,43.6,82,68,50,30.21,30.17,7,2,12,0.00
2014-9-10,68.0,58.8,51.3,54.7,51.0,44.8,88,76,61,30.17,30.10,6,2,9,0.00
2014-9-11,68.5,60.7,54.3,58.0,54.0,50.8,89,79,63,30.22,30.13,5,2,10,0.00
2014-9-12,67.1,59.5,55.2,57.9,53.3,50.4,90,80,64,30.30,30.20,6,2,12,0.00
2014-9-13,68.4,60.0,53.9,57.6,53.6,50.0,89,80,64,30.34,30.29,3,1,8,0.00
2014-9-14,65.7,59.1,55.8,55.4,53.1,50.8,90,81,63,30.31,30.16,7,3,14,0.00
2014-9-15,65.3,59.6,56.3,54.4,53.1,51.6,86,79,66,30.16,30.02,7,3,15,0.00
2014-9-16,68.5,60.8,57.2,58.3,55.6,53.2,90,83,66,30.03,29.92,7,2,15,0.00
2014-9-17,65.8,60.9,58.3,57.0,55.3,53.0,89,82,70,29.93,29.89,8,4,15,0.00
2014-9-18,66.9,60.6,57.7,58.6,55.7,54.4,91,84,70,29.89,29.83,7,3,13,0.00
2014-9-19,62.1,60.0,59.0,58.1,56.1,54.5,90,87,83,30.00,29.81,5,2,13,0.00
2014-9-20,65.3,59.7,55.2,55.0,51.7,48.0,87,76,60,30.23,29.99,7,2,16,0.00
2014-9-21,67.1,56.5,48.0,53.9,49.7,44.2,87,79,60,30.33,30.23,6,2,12,0.00
2014-9-22,68.2,58.9,53.2,52.8,48.5,45.3,87,70,47,30.33,30.19,8,2,15,0.00
2014-9-23,59.5,57.5,55.7,53.0,49.6,46.8,84,75,64,30.19,29.94,8,3,20,0.01
2014-9-24,61.2,55.1,49.3,51.1,47.6,44.4,90,77,54,30.05,29.93,5,2,21,0.03
2014-9-25,65.3,60.3,54.0,57.7,53.9,47.3,84,79,76,30.04,29.99,8,3,18,0.00
2014-9-26,67.3,60.2,53.1,53.2,47.9,42.7,82,65,42,30.28,30.03,10,3,24,0.00
2014-9-27,68.7,58.2,52.0,55.8,49.0,43.3,84,72,53,30.26,30.18,9,3,17,0.00
2014-9-28,64.2,59.5,55.2,55.8,52.6,48.7,88,78,62,30.18,30.08,5,1,8,0.00
2014-9-29,67.5,60.0,56.8,57.7,54.8,53.0,88,83,65,30.11,30.05,7,3,15,0.00
2014-9-30,63.0,59.2,56.1,58.5,55.1,49.2,90,86,77,30.06,29.97,15,5,23,0.00
2014-10-1,64.0,57.1,50.7,52.3,45.8,38.5,81,67,44,30.40,30.05,9,2,16,0.00
2014-10-2,63.1,55.8,48.7,52.6,45.3,39.1,81,68,59,30.41,30.06,17,7,29,0.00
2014-10-3,64.4,57.1,49.7,60.4,51.4,47.2,91,82,64,30.06,29.77,22,5,30,0.28
2014-10-4,57.7,50.4,44.2,47.5,42.5,37.3,92,76,47,30.06,29.74,6,2,20,0.11
2014-10-5,56.7,53.6,49.8,49.8,44.7,40.6,84,72,65,30.05,29.38,30,10,49,2.34
2014-10-6,57.4,52.1,46.9,52.5,44.5,38.7,91,76,52,29.39,29.16,29,7,52,6.07
2014-10-7,57.9,48.7,41.5,42.9,40.7,38.0,91,75,51,29.37,29.29,13,4,21,0.00
2014-10-8,55.2,53.0,51.3,49.5,46.3,40.8,85,78,66,29.35,29.06,15,7,28,0.10
2014-10-9,57.9,51.3,46.2,49.0,45.5,42.5,89,81,69,29.52,29.02,9,3,23,0.00
2014-10-10,60.4,51.9,46.9,44.3,42.3,40.9,81,70,51,29.72,29.52,7,2,15,0.00
2014-10-11,59.5,51.2,46.9,46.9,44.1,42.3,85,77,59,29.86,29.72,5,2,13,0.00
2014-10-12,59.0,51.9,45.5,47.7,44.4,40.3,86,76,64,29.89,29.82,6,2,13,0.00
2014-10-13,57.9,53.8,52.2,45.9,43.9,41.3,77,69,58,29.83,29.78,7,3,18,0.00
2014-10-14,59.9,53.8,51.3,46.9,44.4,42.7,78,71,60,29.83,29.70,10,4,17,0.00
2014-10-15,56.5,55.0,53.6,52.9,50.0,46.9,91,83,75,29.70,29.37,24,14,34,0.39
2014-10-16,58.3,56.0,51.6,55.6,53.4,49.0,92,91,89,29.43,29.38,10,5,18,0.11
2014-10-17,58.8,56.9,53.8,56.8,54.1,51.2,93,90,88,29.59,29.34,23,10,37,0.78
2014-10-18,64.8,59.8,57.0,56.3,52.4,48.2,92,77,62,29.57,29.35,18,9,30,0.00
2014-10-19,62.2,58.1,53.2,51.7,48.2,46.6,81,70,63,29.89,29.53,15,8,32,0.00
2014-10-20,58.8,55.0,51.8,49.6,47.2,45.8,83,75,66,29.90,29.48,15,7,29,0.01
2014-10-21,58.3,50.4,45.3,50.4,39.8,30.2,78,68,43,30.19,29.36,17,6,31,0.00
2014-10-22,54.3,50.9,45.5,45.3,42.5,37.5,81,73,67,30.25,30.03,9,5,21,0.00
2014-10-23,63.7,57.8,53.4,51.6,49.1,44.4,80,73,62,30.02,29.80,10,5,21,0.00
2014-10-24,55.0,52.3,49.6,47.2,43.0,40.4,80,71,59,29.88,29.83,10,4,21,0.00
2014-10-25,57.6,53.4,50.5,45.1,43.1,41.7,74,68,59,29.91,29.82,14,7,30,0.00
2014-10-26,61.9,57.8,54.0,52.1,48.0,43.0,74,70,65,29.91,29.82,14,8,32,0.00
2014-10-27,63.3,60.3,57.9,53.7,52.2,50.9,85,75,67,29.88,29.73,14,6,21,0.00
2014-10-28,60.6,52.6,42.8,55.1,48.0,35.1,90,84,73,29.98,29.63,21,7,35,0.08
2014-10-29,55.2,49.8,42.9,52.6,40.8,34.7,91,72,55,30.02,29.85,12,5,20,0.00
2014-10-30,59.9,57.0,55.4,56.3,54.4,52.8,93,91,84,29.87,29.79,14,7,24,0.00
2014-10-31,59.2,57.3,54.5,56.2,54.5,49.8,93,90,82,30.14,29.63,16,8,25,0.02
2014-11-1,56.7,53.8,50.5,53.7,47.2,42.4,91,78,66,29.78,29.40,21,9,40,0.13
2014-11-2,54.8,50.7,46.6,46.3,40.3,37.9,76,68,55,29.54,29.20,12,6,29,0.00
2014-11-3,48.7,44.8,40.5,41.0,36.9,34.7,84,74,66,29.20,29.00,12,4,23,0.00
2014-11-4,52.9,45.0,39.2,43.6,39.8,36.3,90,82,66,29.62,29.12,8,2,20,0.00
2014-11-5,51.2,45.8,42.1,41.1,39.0,36.5,86,77,65,29.80,29.62,14,3,21,0.00
2014-11-6,55.2,52.7,47.3,52.9,49.0,38.0,93,87,70,29.67,28.98,26,14,42,0.41
2014-11-7,52.5,47.7,43.0,48.4,43.1,38.7,94,85,69,29.33,29.01,12,4,28,0.06
2014-11-8,50.5,46.7,44.1,47.2,42.0,37.2,91,84,71,29.40,29.16,9,4,20,0.15
2014-11-9,50.4,46.7,43.3,45.5,42.6,40.6,91,86,78,29.54,29.40,8,2,15,0.01
2014-11-10,52.3,47.4,41.0,49.8,44.5,38.9,93,90,84,29.54,29.14,21,7,34,0.49
2014-11-11,52.9,50.9,47.1,50.6,48.0,44.0,92,90,86,29.21,29.09,16,3,24,0.07
2014-11-12,52.3,49.9,47.1,49.9,45.8,41.3,93,86,76,29.33,29.02,18,8,28,0.08
2014-11-13,53.4,50.8,45.3,48.9,46.6,42.3,91,86,79,29.33,29.12,26,12,40,2.31
2014-11-14,54.4,51.0,46.6,50.8,46.5,40.4,90,85,78,29.35,28.99,28,12,37,3.42
2014-11-15,53.1,50.4,48.2,49.9,46.8,44.5,90,88,84,29.47,29.32,12,4,17,0.03
2014-11-16,53.8,49.6,43.2,46.7,44.3,39.3,87,82,75,29.70,29.45,8,3,13,0.00
2014-11-17,51.6,48.6,43.0,47.4,44.8,39.4,90,86,80,29.76,29.63,7,3,20,0.01
2014-11-18,53.3,51.6,50.2,46.4,44.0,41.6,83,75,68,29.87,29.75,17,11,28,0.01
2014-11-19,52.5,51.5,49.5,47.9,44.7,41.6,91,78,68,30.09,29.86,20,14,27,0.14
2014-11-20,51.8,48.7,43.2,49.1,45.5,40.6,92,89,77,30.21,30.10,12,3,17,0.00
2014-11-21,53.8,50.6,48.6,51.5,46.3,42.4,93,85,76,30.11,29.60,18,13,30,0.17
2014-11-22,53.8,48.2,41.7,51.5,44.7,37.2,95,88,80,30.01,29.58,12,2,18,0.00
2014-11-23,45.5,40.4,35.8,37.7,35.5,31.1,88,83,72,30.17,30.01,6,2,11,0.00
2014-11-24,49.5,44.9,40.3,41.9,37.8,34.0,85,76,66,30.26,30.17,8,2,13,0.00
2014-11-25,50.2,47.2,45.3,46.5,42.1,37.9,90,82,73,30.24,30.04,7,2,12,0.00
2014-11-26,45.7,42.1,39.0,40.2,37.8,35.8,90,85,73,30.03,29.70,6,2,12,0.00
2014-11-27,50.3,45.1,39.4,44.5,40.1,36.3,90,83,75,29.70,29.44,14,5,22,0.00
2014-11-28,55.0,51.5,49.8,48.5,45.5,43.1,84,80,75,29.72,29.45,15,7,22,0.00
2014-11-29,52.5,50.0,46.8,47.3,45.4,42.8,88,84,78,29.88,29.72,5,1,10,0.00
2014-11-30,50.2,45.6,42.8,45.2,41.8,39.0,91,86,82,30.05,29.88,5,1,13,0.00
2014-12-1,47.8,44.0,41.9,42.9,40.1,38.5,90,86,78,30.07,29.90,6,2,17,0.01
2014-12-2,44.4,39.6,36.1,38.7,33.8,29.6,87,80,69,30.40,30.07,5,2,15,0.00
2014-12-3,43.7,39.1,35.4,38.4,34.8,30.9,90,85,74,30.39,30.16,5,2,11,0.00
2014-12-4,43.0,41.1,39.7,38.2,36.7,35.8,87,84,82,30.16,29.95,3,1,9,0.00
2014-12-5,42.3,38.9,35.1,37.0,34.1,30.1,88,83,77,30.34,30.02,6,1,15,0.00
2014-12-6,50.4,44.1,35.8,45.2,39.7,31.1,89,84,80,30.34,29.98,12,4,26,0.00
2014-12-7,50.5,42.6,38.1,45.6,35.4,31.1,86,76,63,30.02,29.87,13,6,26,0.00
2014-12-8,42.1,38.0,34.9,34.6,32.4,29.3,85,80,73,30.31,29.97,9,2,27,0.00
2014-12-9,54.3,47.3,39.3,47.1,40.3,34.0,85,77,66,30.30,29.68,20,8,41,0.02
2014-12-10,45.1,41.8,39.2,35.3,33.8,31.8,84,73,63,29.83,29.67,21,10,41,0.07
2014-12-11,42.1,40.0,38.3,37.8,35.7,33.8,89,84,77,29.68,29.25,15,5,33,0.09
2014-12-12,40.8,36.9,33.6,37.8,32.1,29.2,89,83,75,29.72,29.19,8,1,25,0.01
2014-12-13,43.8,37.4,32.0,36.7,31.8,27.6,85,80,75,29.85,29.72,12,3,26,0.00
2014-12-14,48.7,44.9,42.3,42.6,38.2,34.6,83,77,73,29.72,29.54,12,6,26,0.01
2014-12-15,45.1,41.9,38.0,38.4,36.4,34.2,87,81,73,29.91,29.69,7,2,23,0.00
2014-12-16,50.4,42.4,37.4,47.8,38.8,33.6,92,87,81,29.95,29.54,14,3,32,0.14
2014-12-17,52.7,51.3,50.0,48.8,48.1,47.1,91,89,86,29.64,29.55,8,3,23,0.00
2014-12-18,55.8,52.1,45.5,50.7,47.6,40.3,88,85,81,29.67,29.53,16,6,33,0.01
2014-12-19,45.7,42.9,41.4,39.7,35.8,34.7,81,76,68,30.13,29.68,12,6,34,0.01
2014-12-20,46.8,43.7,41.4,40.0,37.8,35.7,85,79,74,30.34,30.13,12,4,26,0.00
2014-12-21,55.0,51.1,45.3,49.1,44.3,37.3,83,78,72,30.26,29.88,16,8,34,0.00
2014-12-22,55.0,53.4,52.2,48.5,47.4,46.2,84,80,74,29.88,29.78,16,9,36,0.00
2014-12-23,54.0,51.7,43.5,47.2,45.1,39.3,89,78,72,29.84,29.68,13,5,29,0.00
2014-12-24,44.8,41.3,39.2,39.3,35.0,33.2,85,78,68,30.22,29.84,7,2,28,0.00
2014-12-25,42.3,38.5,35.6,36.2,33.7,30.6,86,83,76,30.50,30.22,3,1,13,0.00
2014-12-26,43.0,40.2,35.1,40.8,36.1,31.5,93,85,66,30.47,29.77,18,4,27,0.11
2014-12-27,39.9,35.1,32.5,37.2,31.4,28.2,92,86,79,30.17,29.87,6,1,13,0.00
2014-12-28,40.5,35.9,33.6,33.0,29.4,27.1,85,77,72,30.66,30.17,6,2,15,0.00
2014-12-29,44.1,39.0,34.0,34.7,31.7,28.1,84,75,66,30.71,30.65,9,2,14,0.00
2014-12-30,47.3,43.9,40.6,40.7,37.0,33.2,82,77,72,30.65,30.32,20,7,29,0.00
2014-12-31,50.4,48.3,44.6,47.1,43.5,39.2,91,83,74,30.32,30.09,21,9,32,0.02
2015-1-1,57.0,51.5,46.8,50.7,45.7,37.1,88,81,66,30.14,29.73,18,2,29,0.04
2015-1-2,46.4,43.1,40.3,36.8,32.6,30.4,74,66,57,30.41,29.98,8,0,30,0.00